AirNav   Free Bose Alto or Rondo audio sunglasses
 
 392 users online  

T37 Goldthwaite Municipal Airport
Goldthwaite, Texas, USA

GOING TO GOLDTHWAITE?


FAA INFORMATION EFFECTIVE 03 DECEMBER 2020

Location

FAA Identifier: T37
Lat/Long: 31-25-44.6400N 098-36-30.0800W
31-25.744000N 098-36.501333W
31.4290667,-98.6083556
(estimated)
Elevation: 1457 ft. / 444 m (estimated)
From city: 2 miles SW of GOLDTHWAITE, TX
Time zone: UTC -6 (UTC -5 during Daylight Saving Time)
Zip code: 76844

Airport Operations

Airport use: Open to the public
Activation date: 08/2010
Control tower: no
ARTCC: FORT WORTH CENTER
FSS: FORT WORTH FLIGHT SERVICE STATION
NOTAMs facility: FTW (NOTAM-D service available)
Attendance: 0800-1700
Wind indicator: lighted
Segmented circle: yes

Airport Communications

CTAF: 122.9
WX AWOS-3 at 81R (13 nm SW): PHONE 325-372-6027

Nearby radio navigation aids

VOR radial/distance  VOR name  Freq  Var
AGJr296/28.0GOOCH SPRINGS VORTAC112.5005E
BWDr139/33.0BROWNWOOD VOR/DME108.6008E
LLOr006/39.1LLANO VORTAC108.2008E

Airport Services

Parking: hangars

Runway Information

Runway 1/19

Dimensions: 3200 x 60 ft. / 975 x 18 m
Surface: asphalt, in good condition
Weight bearing capacity: 
Single wheel: 12.5
RUNWAY 1  RUNWAY 19
Latitude: 31-25.485000N31-26.002833N
Longitude: 098-36.560833W098-36.442000W
Elevation: 1445.0 ft.1457.0 ft.
Traffic pattern: leftleft
Markings: basic, in fair conditionbasic, in fair condition
Visual slope indicator: 2-light PAPI on left (3.00 degrees glide path)2-light PAPI on left (3.00 degrees glide path)
Obstructions: 3 ft. fence, 200 ft. from runway, 91 ft. left of centerline
3 FT FENCE 0-200 FT FM THR, 91 FT L.
50 ft. tree, 1133 ft. from runway, 32 ft. left of centerline, 18:1 slope to clear

Airport Ownership and Management from official FAA records

Ownership: Publicly-owned
Owner: CITY OF GOLDTHWAITE
PO BOX 450
GOLDTHWAITE, TX 76844-0450
Phone 325-648-3186
Manager: ROBERT LINDSEY
PO BOX 450
GOLDTHWAITE, TX 76844-0450
Phone 325-648-3186
CITY MGR

Airport Operational Statistics

Aircraft based on the field: 9
Single engine airplanes: 9
    
Aircraft operations: avg 52/week *
67% local general aviation
33% transient general aviation
* for 12-month period ending 13 September 2017

Additional Remarks

RWY 01 HAS 4 FT FENCE AND ISOLD + 18 FT TREES 400-475 FT FM THR ACRS APCH.
DEER ON & INVOF ARPT.
FOR CD CTC FORT WORTH ARTCC AT 817-858-7584.

Instrument Procedures

There are no published instrument procedures at T37.

Some nearby airports with instrument procedures:

KMNZ - Hamilton Municipal Airport (27 nm NE)
KBWD - Brownwood Regional Airport (28 nm NW)
KLZZ - Lampasas Airport (29 nm SE)
KMKN - Comanche County-City Airport (29 nm N)
KAQO - Llano Municipal Airport (39 nm S)
 
Loc | Ops | Rwys | IFR | FBO | Links
Com | Nav | Svcs | Stats | Notes
Aerial photo
WARNING: Photo may not be current or correct
Aerial photo of T37 (Goldthwaite Municipal Airport)
Photo taken 20-Sep-2010

Do you have a better or more recent aerial photo of Goldthwaite Municipal Airport that you would like to share? If so, please send us your photo.

 
Sectional chart

 
Airport distance calculator
Flying to Goldthwaite Municipal Airport? Find the distance to fly.

From to T37

Sunrise and sunset
Times for 05-Dec-2020
 Local
(UTC-6)
 Zulu
(UTC)
Morning civil twilight06:5412:54
Sunrise07:2113:21
Sunset17:3023:30
Evening civil twilight17:5723:57

Current date and time
Zulu (UTC)  05-Dec-2020 08:51:00
Local (UTC-6)  05-Dec-2020 02:51:00
 
METAR
KMNZ 
27nm NE 
050835Z AUTO 26003KT 10SM CLR 03/M02 A3024 RMK AO2 T00341021
KBWD 
28nm NW 
050835Z AUTO 00000KT 10SM CLR M03/M05 A3025 RMK AO1
KLZZ 
29nm SE 
050835Z AUTO 00000KT 10SM CLR 00/M03 A3024 RMK AO2 T10051026
KMKN 
29nm N 
050835Z AUTO 24003KT 10SM CLR 04/M03 A3024 RMK AO2 T00411033
KAQO 
39nm S 
050835Z AUTO 00000KT 10SM BKN034 BKN044 M00/M03 A3027 RMK AO2
KBBD 
40nm W 
050835Z AUTO 00000KT 10SM CLR M00/M06 A3024 RMK AO2
KGOP 
42nm E 
050835Z AUTO 23003KT 8SM CLR M01/M03 A3026 RMK AO2
KGRK 
45nm SE 
050758Z AUTO 32004KT 10SM CLR 02/M01 A3022 RMK AO2 SLP237 T00161015
KBMQ 
46nm SE 
050753Z AUTO 00000KT 10SM CLR 00/M03 A3026 RMK AO2 SLP248 T00001028
KCOM 
48nm NW 
050835Z AUTO 27006KT 10SM 00/M05 A3025 RMK AO2 T00031050
TAF
KBBD 
40nm W 
050520Z 0506/0606 VRB03KT P6SM FEW250 FM051400 29005KT P6SM BKN100 FM051800 28005KT P6SM VCSH SCT050 OVC100 FM052300 31005KT P6SM OVC050
KGRK 
45nm SE 
050800Z 0508/0614 01006KT 9999 SCT130 QNH3014INS TX12/0520Z TN01/0509Z
NOTAMs
Click for the latest NOTAMs
NOTAMs are issued by the DoD/FAA and will open in a separate window not controlled by AirNav.

 

 
 

Would you like to see your business listed on this page?

 If your business provides an interesting product or service to pilots, flight crews, aircraft, or users of the Goldthwaite Municipal Airport, you should consider listing it here.  To start the listing process, click on the button below
 
Add a business
 

Other Pages about Goldthwaite Municipal Airport

Update a link
 
Copyright © AirNav, LLC. All rights reserved. Privacy Policy  Contact